CAPE
1271 1283 1139 1033 1086 1215 1192 1056 967 900 449 242 532 276 156 2 18 61 22 267 33 210 477 482 697 886 1086 1351 1478 1433 1621 1705 1963 2049 1943 1904 2010 2242
974 994 1119 1245 1357 1257 1008 765 910 650 741 495 604 340 188 9 1 9 0 102 75 267 315 217 245 339 440 446 397 679 1115 1302 1491 1670 1642 1508 1554 1655
7 306 590 807 1032 1279 1281 846 854 830 933 826 560 842 152 19 57 33 8 1 228 531 130 89 68 51 55 92 148 277 487 586 689 988 1178 1232 1231 1293
0 0 0 16 177 740 1059 1136 906 815 786 864 727 877 547 223 142 0 88 1212 1329 1279 221 82 23 1 12 27 48 68 82 47 103 290 681 886 971 963
0 0 0 0 0 119 286 666 816 873 865 838 874 727 885 748 784 777 1096 1365 1727 1639 1559 447 32 63 119 0 0 1 7 0 0 0 50 229 504 599
0 0 0 0 0 23 0 138 461 525 565 598 693 717 684 745 957 959 1084 963 1426 1431 1011 481 87 63 26 0 0 0 0 0 0 0 0 0 6 59
0 0 0 0 4 0 19 132 322 523 416 430 528 732 809 743 790 610 750 924 1076 1146 1179 730 1 1 106 58 10 0 0 0 0 0 0 0 0 0
0 0 0 0 0 13 171 34 163 252 304 435 494 659 654 739 885 767 777 821 793 993 897 754 38 10 98 147 222 57 30 0 0 0 0 0 0 0
0 0 7 15 0 0 0 0 41 132 126 271 425 438 532 583 565 626 660 869 809 922 788 832 531 542 289 190 39 0 0 0 0 0 0 0 0 0
0 0 3 0 0 0 0 2 2 101 239 227 134 328 426 467 570 465 528 570 679 727 627 774 505 605 472 59 0 0 0 29 0 0 0 0 0 0
0 0 0 0 1 0 0 0 0 4 8 28 65 7 19 0 0 0 0 0 40 191 263 703 501 538 591 624 123 1 0 0 0 0 0 0 0 1
0 0 0 0 1 0 0 0 0 0 0 0 0 9 41 93 1 0 1 325 175 252 211 209 224 355 265 408 577 335 210 185 0 0 0 0 0 0
0 0 0 0 0 0 0 0 0 0 0 6 8 0 0 0 0 0 67 217 214 8 49 382 326 285 279 322 394 475 444 416 223 151 0 0 1 0
0 0 0 0 0 1 0 0 0 0 0 0 0 0 0 0 9 67 176 129 178 340 249 220 226 160 104 80 166 306 215 342 530 549 498 304 1 1
0 0 0 0 0 0 0 0 0 0 0 0 0 0 0 0 0 1 0 0 0 0 0 3 1 0 3 2 10 119 287 190 296 437 558 454 260 1
0 0 0 0 0 0 0 0 0 0 0 0 0 0 0 0 0 0 0 0 0 0 0 0 0 0 0 0 0 0 0 76 26 21 190 412 443 85
0 0 0 0 0 0 0 0 0 0 0 0 0 0 0 0 0 0 0 0 0 0 0 0 0 0 0 0 0 0 0 0 0 0 0 0 0 267
0 0 0 0 0 0 0 0 0 0 0 0 0 0 0 0 0 0 0 0 0 0 0 0 0 0 0 0 0 0 0 0 0 0 0 0 0 0
0 0 0 0 0 0 0 0 0 0 0 0 0 0 0 0 0 0 0 0 0 0 0 0 0 0 0 0 0 0 0 0 0 0 0 0 0 0
0 0 0 0 0 0 0 0 0 0 0 0 0 0 0 0 0 0 0 0 0 0 0 0 0 0 0 0 0 0 0 0 0 0 0 0 0 0
0 0 0 0 0 0 0 0 0 0 0 0 0 0 0 0 0 0 0 0 0 0 0 0 0 0 0 0 0 0 0 0 0 0 0 0 0 0
0 0 0 0 0 0 0 0 0 0 0 0 0 0 0 0 0 0 0 0 0 0 0 0 0 0 0 0 0 0 0 0 0 0 7 6 0 5
0 0 0 0 0 0 0 0 0 0 0 0 0 0 0 0 0 0 0 0 0 0 0 0 0 0 0 0 0 1 0 0 1 2 0 0 1 0
CIN
-16 -19 -27 -37 -40 -36 -42 -46 -18 -3 -112 -172 -112 -181 -223 -413 -467 -378 -378 -230 -363 -317 -243 -216 -201 -149 -113 -85 -70 -61 -41 -34 -14 -10 -7 -2 -1 -0
-13 -12 -13 -18 -22 -36 -54 -56 -43 -38 -9 -91 -81 -182 -207 -151 -50 -209 -0 -340 -352 -233 -273 -285 -286 -257 -205 -201 -186 -131 -93 -73 -53 -28 -21 -22 -10 -4
-107 -100 -37 -15 -12 -17 -22 -46 -36 -40 -10 -31 -84 -85 -207 -329 -265 -346 -227 -145 -212 -168 -322 -350 -369 -350 -315 -294 -265 -212 -174 -164 -139 -94 -65 -54 -50 -37
-0 -0 -0 -201 -141 -13 -12 -10 -26 -38 -22 -8 -31 -38 -98 -163 -234 -0 -231 -70 -48 -33 -240 -341 -428 -272 -416 -367 -340 -287 -275 -282 -251 -191 -129 -101 -88 -85
-0 -0 -0 -0 -0 -177 -70 -16 -18 -25 -26 -14 -10 -39 -43 -66 -67 -87 -82 -66 -44 -35 -24 -139 -438 -363 -193 -0 -0 -116 -378 -0 -0 -0 -209 -203 -138 -126
-0 -0 -0 -0 -0 -254 -0 -148 -30 -25 -28 -22 -16 -19 -41 -52 -50 -37 -49 -82 -46 -35 -95 -178 -366 -381 -471 -0 -0 -0 -0 -0 -0 -0 -0 -0 -85 -270
-0 -0 -0 -0 -245 -0 -126 -181 -115 -33 -28 -21 -10 -5 -12 -34 -27 -63 -39 -59 -77 -69 -66 -147 -212 -119 -349 -338 -438 -0 -0 -0 -0 -0 -0 -0 -0 -0
-0 -0 -0 -0 -0 -32 -144 -246 -170 -115 -88 -28 -13 -0 -10 -11 -16 -17 -17 -14 -22 -67 -77 -88 -371 -368 -374 -332 -302 -447 -451 -0 -0 -0 -0 -0 -0 -0
-0 -0 -48 -32 -0 -0 -0 -0 -198 -132 -153 -86 -32 -32 -25 -29 -24 -36 -24 -6 -9 -28 -35 -41 -141 -136 -251 -300 -425 -0 -0 -0 -0 -0 -0 -0 -0 -0
-0 -0 -17 -0 -0 -0 -0 -53 -55 -177 -90 -117 -156 -79 -75 -70 -61 -46 -33 -26 -35 -51 -64 -20 -84 -77 -134 -359 -0 -0 -0 -106 -0 -0 -0 -0 -0 -0
-0 -0 -0 -0 -0 -0 -0 -0 -0 -44 -37 -229 -194 -39 -31 -0 -0 -0 -0 -0 -130 -85 -87 -44 -54 -26 -61 -78 -285 -105 -0 -0 -0 -0 -0 -0 -0 -0
-0 -0 -3 -0 -0 -0 -0 -0 -0 -0 -0 -0 -0 -45 -145 -141 -15 -0 -7 -42 -50 -52 -109 -68 -83 -47 -79 -108 -91 -134 -192 -204 -0 -0 -0 -0 -0 -0
-0 -3 -0 -0 -0 -0 -0 -0 -0 -0 -0 -37 -83 -0 -0 -0 -0 -0 -99 -28 -31 -38 -123 -35 -44 -62 -31 -30 -97 -69 -60 -68 -147 -230 -0 -0 -0 -0
-3 -11 -0 -0 -0 -0 -0 -0 -0 -0 -0 -0 -0 -0 -0 -0 -48 -106 -58 -76 -79 -53 -52 -75 -27 -30 -48 -79 -71 -91 -101 -67 -44 -48 -65 -122 -0 -0
-0 -0 -0 -0 -0 -0 -0 -0 -0 -0 -0 -0 -0 -0 -0 -0 -0 -7 -0 -0 -0 -11 -5 -19 -8 -0 -6 -6 -27 -41 -28 -84 -69 -40 -29 -41 -69 -0
-0 -0 -0 -0 -0 -0 -0 -0 -0 -0 -0 -0 -0 -0 -0 -0 -0 -0 -0 -0 -0 -0 -0 -0 -0 -0 -0 -0 -0 -0 -0 -1 -44 -40 -13 -16 -26 -112
-0 -0 -0 -25 -0 -0 -0 -0 -0 -0 -0 -0 -0 -0 -0 -0 -0 -0 -0 -0 -0 -0 -0 -0 -0 -0 -0 -0 -0 -0 -0 -0 -0 -0 -0 -0 -0 -9
-0 -0 -0 -0 -0 -0 -0 -0 -0 -0 -0 -0 -0 -0 -0 -0 -0 -0 -0 -0 -0 -0 -0 -0 -0 -0 -0 -0 -0 -0 -0 -0 -0 -0 -0 -0 -0 -0
-0 -0 -0 -0 -0 -0 -0 -0 -0 -0 -0 -0 -0 -0 -0 -0 -0 -0 -0 -0 -0 -0 -0 -0 -0 -0 -0 -0 -0 -0 -0 -0 -0 -0 -0 -0 -0 -0
-0 -0 -0 -0 -0 -0 -0 -0 -0 -0 -0 -0 -0 -0 -0 -0 -0 -0 -0 -0 -0 -0 -0 -0 -0 -0 -0 -0 -0 -0 -0 -0 -0 -0 -0 -0 -0 -0
-0 -0 -0 -0 -0 -0 -0 -0 -0 -0 -0 -0 -0 -0 -0 -0 -0 -0 -0 -0 -0 -0 -0 -0 -0 -0 -0 -0 -0 -0 -0 -0 -0 -0 -0 -0 -0 -0
-0 -0 -0 -0 -0 -0 -0 -0 -0 -0 -0 -0 -0 -0 -0 -0 -0 -0 -0 -0 -0 -0 -0 -0 -0 -0 -0 -0 -5 -2 -1 -0 -0 -0 -21 -6 -1 -0
-0 -0 -0 -0 -0 -0 -0 -0 -0 -0 -0 -0 -0 -0 -0 -0 -0 -0 -0 -0 -0 -0 -0 -0 -0 -0 -0 -0 -0 -3 -0 -0 -1 -0 -0 -0 -3 -0
Wind_Speed
5 5 4 4 4 4 4 3 4 4 4 3 3 5 4 6 13 7 12 5 10 14 14 14 14 14 14 15 15 15 15 14 15 15 16 16 17 18
4 6 4 3 4 4 4 4 3 4 5 4 4 5 6 5 7 8 7 8 13 15 16 17 15 15 16 15 14 15 16 15 15 15 16 16 16 16
6 6 6 6 5 4 3 3 4 3 5 4 5 4 7 8 8 11 10 9 9 13 16 16 15 15 16 16 16 17 16 15 14 15 16 17 17 17
7 7 6 7 8 7 3 5 4 4 4 9 4 3 5 8 8 9 10 9 8 11 17 15 12 11 12 14 15 15 16 15 14 15 16 17 18 17
6 6 6 6 7 6 6 5 4 3 3 4 5 2 4 4 5 6 6 5 6 9 10 10 14 14 15 12 13 15 16 16 16 16 16 16 16 17
8 7 7 7 7 6 8 7 5 4 3 2 2 3 3 4 3 3 6 2 4 5 2 6 10 12 12 13 14 18 16 17 16 17 17 16 17 16
9 8 7 8 11 9 4 6 6 3 3 3 3 2 2 2 3 2 3 3 4 4 4 4 4 4 5 9 12 16 16 17 17 17 17 18 18 18
8 10 9 11 8 7 8 9 5 3 4 3 4 4 4 3 2 3 2 2 4 3 1 3 3 3 4 4 9 11 12 17 19 18 19 18 18 18
8 7 7 6 9 6 8 9 9 9 9 5 5 5 5 4 3 3 4 4 4 5 1 4 3 4 5 6 12 14 18 18 19 17 17 18 19 19
8 8 6 6 7 8 8 8 7 7 7 3 6 7 7 6 5 3 3 4 3 4 3 4 3 4 3 5 10 15 17 14 13 11 14 17 18 18
7 5 5 7 12 13 6 7 8 7 9 12 9 9 11 10 3 1 3 1 3 3 3 1 2 2 3 4 5 13 18 14 14 14 11 12 12 13
7 6 7 9 11 10 5 5 7 7 8 10 9 7 8 11 7 3 2 2 2 3 4 3 2 3 5 3 1 2 3 9 11 12 12 12 12 8
4 5 6 16 10 6 5 4 4 6 8 5 4 6 6 6 5 5 4 2 2 3 5 2 2 2 2 4 3 2 2 3 4 5 12 13 14 14
4 4 5 12 12 9 7 11 12 7 4 4 4 4 4 4 6 4 4 5 6 6 6 3 2 2 2 2 4 3 4 4 3 4 3 2 8 14
4 8 8 8 7 6 9 10 8 6 5 5 4 4 4 4 6 5 6 5 5 4 5 6 5 5 3 3 4 4 4 3 4 4 4 3 4 4
10 7 6 7 4 4 3 4 3 3 3 3 3 3 4 4 4 3 3 4 3 5 5 7 7 5 4 3 3 4 5 4 7 7 6 4 4 4
8 3 2 2 4 4 5 5 4 4 4 4 3 4 4 4 5 4 5 4 4 6 8 8 9 5 3 4 4 4 5 6 7 8 8 8 7 5
2 3 3 2 4 3 4 4 4 6 4 4 5 4 4 4 5 4 4 4 4 5 6 5 8 8 5 4 10 6 5 7 9 9 7 7 8 7
2 4 3 2 2 3 3 3 3 3 3 4 3 4 4 4 5 4 4 4 5 4 5 7 5 7 7 7 4 13 10 8 8 8 7 8 10 10
3 3 1 1 1 2 2 3 3 4 2 3 3 3 3 3 3 4 4 3 3 3 4 5 3 5 4 6 8 7 5 7 8 9 11 10 11 18
2 0 2 1 0 1 2 2 3 4 3 3 1 1 1 1 2 3 4 5 5 2 4 5 5 10 4 5 7 9 8 10 10 10 10 10 13 13
3 3 2 1 3 3 3 3 3 4 4 3 2 1 1 1 2 4 5 5 5 5 5 6 5 4 4 7 10 14 11 10 11 17 16 16 11 9
5 4 4 4 4 5 4 4 3 4 4 4 2 2 1 2 4 4 5 5 5 5 4 8 5 3 6 8 12 11 17 15 11 13 12 14 21 26
Wind_Direction
312 292 284 280 277 260 243 199 208 278 283 247 199 188 208 227 224 228 241 207 240 236 230 221 210 212 212 211 214 220 228 222 221 217 214 217 222 225
320 321 310 292 284 275 264 263 226 214 254 192 224 181 189 224 260 241 268 271 272 256 226 218 211 207 212 218 224 225 217 216 217 216 214 213 216 219
333 331 329 324 299 291 287 277 266 193 243 267 236 202 179 210 226 244 252 263 265 245 232 225 215 210 213 216 215 221 220 215 216 219 217 214 213 216
342 356 339 338 339 315 302 289 269 258 218 265 265 244 209 209 226 219 236 246 245 234 230 227 212 221 231 220 216 219 218 213 215 219 219 216 218 217
328 328 321 329 326 316 311 291 279 280 261 234 267 244 250 230 247 253 244 236 239 253 256 232 200 217 228 224 219 221 221 218 216 216 218 216 219 217
319 314 308 303 296 304 306 286 273 283 292 285 252 260 248 274 235 262 285 251 245 252 315 198 174 201 213 222 235 238 227 228 220 217 215 216 218 218
305 299 283 274 288 291 281 309 298 301 306 297 282 257 269 305 288 285 269 288 270 216 219 200 200 205 209 223 235 231 232 229 224 220 227 219 216 218
293 294 283 286 292 331 346 344 303 290 283 262 270 271 258 247 237 261 289 312 313 337 31 287 176 257 248 233 218 221 219 224 227 211 220 219 226 224
297 305 322 7 19 356 329 315 311 302 238 240 256 258 264 229 231 266 235 227 234 271 297 277 181 233 242 248 244 237 237 231 226 213 216 216 222 227
341 335 27 17 8 353 332 332 323 303 297 260 225 253 242 256 235 231 263 282 280 275 196 248 195 243 241 243 238 244 260 263 209 212 218 219 219 223
338 5 30 14 355 360 348 344 337 330 343 324 298 294 299 290 250 352 308 352 312 300 325 190 319 272 245 246 243 253 260 306 306 288 255 245 235 235
327 344 24 6 353 360 358 345 340 313 329 330 340 355 17 25 17 324 7 301 301 322 284 25 341 20 328 298 178 80 266 266 265 261 255 232 222 229
318 352 345 342 333 342 331 343 305 308 320 338 22 3 359 7 9 0 345 284 236 259 269 57 314 318 214 305 315 332 259 286 250 233 226 227 205 201
350 357 348 343 355 343 344 347 4 4 4 21 30 9 357 345 326 337 354 341 292 242 310 279 243 246 249 273 272 313 315 266 255 274 274 268 199 220
11 334 333 338 357 355 353 10 9 7 1 15 22 9 347 333 334 349 328 310 318 15 17 43 53 358 345 307 295 301 306 291 276 274 284 250 234 193
344 317 294 306 336 320 335 346 7 28 39 17 356 325 329 358 350 338 335 340 3 338 356 27 33 17 338 318 311 315 318 322 336 338 301 267 265 214
317 287 8 339 348 344 343 339 338 360 17 347 339 344 347 358 347 345 2 354 15 356 359 354 355 349 311 282 316 12 351 348 346 337 339 325 311 268
345 318 317 315 315 335 2 5 20 16 8 11 2 14 17 12 358 352 359 14 4 350 350 332 336 346 355 349 52 9 2 337 329 323 317 311 304 308
225 285 252 282 329 33 32 37 355 332 355 359 1 8 17 7 9 354 350 359 7 353 341 341 22 24 3 327 286 38 330 319 329 326 328 308 301 308
225 260 233 106 76 63 19 357 324 330 312 311 339 7 31 29 1 351 349 348 348 319 341 342 352 359 332 300 303 308 359 315 311 303 306 298 288 286
216 120 73 49 350 234 248 279 292 301 300 280 269 132 32 48 322 313 311 309 315 288 302 304 283 297 278 276 297 299 301 261 257 278 289 291 298 298
196 164 172 225 268 262 258 243 271 294 290 280 267 168 30 339 297 291 287 286 275 255 257 272 271 274 283 300 298 301 302 303 283 264 245 261 275 278
190 193 205 228 245 255 236 228 248 268 272 276 166 172 274 298 285 275 274 273 273 269 263 285 277 265 276 294 290 291 294 300 299 294 286 267 271 272